User: anonymous   Login
Location: ??
(35.5052°N, 139.7262°E)
Time: 20:39:56
(UTC+00:00)
Language:

Cosmos 1408 Rocket - Orbit

View from above orbital plane
View from above orbital plane
View from above satellite
View from above satellite

Ground track
Ground track

The orbit data is extracted from the following two-line orbital elements,

1 13553U 82092B   21270.58904105  .00000130  00000-0  12582-4 0  9998
2 13553  82.5703 217.2870 0019787 278.7535 254.7206 14.84291761 87857
Epoch (UTC): 27 September 2021 14:08:13
Eccentricity: 0.0019787
inclination: 82.5703°
perigee height: 602 km
apogee height: 629 km
right ascension of ascending node: 217.2870°
argument of perigee: 278.7535°
revolutions per day: 14.84291761
mean anomaly at epoch: 254.7206°
orbit number at epoch: 8785

The dashed part of the orbit path shows where the satellite is in the earth's shadow,  

DLR